CEB490 RPLL-RPVB

Flight info

Callsign CEB490
Flight time 0h 49m
Altitude 33000
Route VERDE2V VERDE W24 TAPER B472 LAMBO LAMBO3P
Aircraft A20N/M-SDE2E3FGHIJ1RWXY/LB1

Departure

Time 2026-04-16 06:35
Airport Ninoy Aquino International Airport (RPLL)

Arrival

Time 2026-04-16 07:24
Airport Bacolod-Silay International Airport (RPVB)
Time Latitude Longitude Altitude Speed Heading
2026-04-16 05:50 14.52280 121.00847 81 ft 0 kts 45°
2026-04-16 06:19 14.52279 121.00845 81 ft 1 kts 46°
2026-04-16 06:20 14.52268 121.00835 81 ft 2 kts 45°
2026-04-16 06:20 14.52258 121.00824 81 ft 2 kts 45°
2026-04-16 06:20 14.52247 121.00813 81 ft 2 kts 26°
2026-04-16 06:20 14.52232 121.00809 81 ft 2 kts
2026-04-16 06:21 14.52217 121.00810 81 ft 2 kts 342°
2026-04-16 06:21 14.52203 121.00817 81 ft 2 kts 320°
2026-04-16 06:21 14.52193 121.00829 81 ft 2 kts 314°
2026-04-16 06:21 14.52182 121.00839 81 ft 2 kts 315°
2026-04-16 06:22 14.52171 121.00850 81 ft 2 kts 315°
2026-04-16 06:22 14.52160 121.00861 81 ft 2 kts 315°
2026-04-16 06:22 14.52150 121.00872 81 ft 2 kts 315°
2026-04-16 06:22 14.52146 121.00876 81 ft 0 kts 315°
2026-04-16 06:26 14.52148 121.00874 81 ft 1 kts 315°
2026-04-16 06:26 14.52168 121.00853 81 ft 6 kts 315°
2026-04-16 06:26 14.52213 121.00807 81 ft 11 kts 314°
2026-04-16 06:26 14.52274 121.00742 81 ft 13 kts 314°
2026-04-16 06:27 14.52346 121.00670 81 ft 14 kts 315°
2026-04-16 06:27 14.52420 121.00593 81 ft 15 kts 313°
2026-04-16 06:27 14.52487 121.00521 81 ft 10 kts 304°
2026-04-16 06:27 14.52467 121.00465 81 ft 9 kts 224°
2026-04-16 06:28 14.52450 121.00448 81 ft 0 kts 224°
2026-04-16 06:32 14.52449 121.00447 81 ft 1 kts 224°
2026-04-16 06:33 14.52430 121.00429 81 ft 6 kts 224°
2026-04-16 06:33 14.52388 121.00401 81 ft 8 kts 186°
2026-04-16 06:33 14.52348 121.00421 81 ft 0 kts 135°
2026-04-16 06:34 14.52192 121.00581 81 ft 72 kts 135°
2026-04-16 06:34 14.51651 121.01141 81 ft 144 kts 136°
2026-04-16 06:34 14.50884 121.01944 491 ft 162 kts 137°
2026-04-16 06:35 14.50098 121.02759 1216 ft 162 kts 137°
2026-04-16 06:35 14.49316 121.03566 1916 ft 160 kts 137°
2026-04-16 06:35 14.48528 121.04376 2443 ft 160 kts 137°
2026-04-16 06:35 14.47746 121.05180 2943 ft 161 kts 136°
2026-04-16 06:36 14.46944 121.06007 3414 ft 166 kts 136°
2026-04-16 06:36 14.46092 121.06886 3731 ft 182 kts 135°
2026-04-16 06:36 14.45161 121.07849 4063 ft 199 kts 135°
2026-04-16 06:36 14.44123 121.08907 4421 ft 215 kts 139°
2026-04-16 06:37 14.42724 121.09615 4663 ft 240 kts 173°
2026-04-16 06:37 14.41018 121.09420 5063 ft 259 kts 194°
2026-04-16 06:37 14.39212 121.08926 5520 ft 276 kts 193°
2026-04-16 06:37 14.37315 121.08437 6155 ft 285 kts 193°
2026-04-16 06:38 14.35388 121.07957 6925 ft 289 kts 192°
2026-04-16 06:38 14.33412 121.07471 7708 ft 293 kts 192°
2026-04-16 06:38 14.31427 121.06987 8476 ft 296 kts 192°
2026-04-16 06:38 14.29424 121.06476 9213 ft 300 kts 196°
2026-04-16 06:39 14.27468 121.05666 9944 ft 305 kts 207°
2026-04-16 06:39 14.25653 121.04526 10586 ft 312 kts 213°
2026-04-16 06:39 14.23797 121.03216 10961 ft 329 kts 214°
2026-04-16 06:39 14.21879 121.01838 11261 ft 346 kts 214°
2026-04-16 06:40 14.19861 121.00393 11743 ft 355 kts 214°
2026-04-16 06:40 14.17838 120.98953 12357 ft 359 kts 214°
2026-04-16 06:40 14.15760 120.97482 12972 ft 363 kts 214°
2026-04-16 06:40 14.13685 120.96014 13564 ft 366 kts 214°
2026-04-16 06:41 14.11566 120.94520 14169 ft 370 kts 214°
2026-04-16 06:41 14.09424 120.93011 14739 ft 373 kts 214°
2026-04-16 06:41 14.07264 120.91489 15325 ft 376 kts 213°
2026-04-16 06:41 14.04987 120.90208 15812 ft 379 kts 197°
2026-04-16 06:42 14.02373 120.89861 16340 ft 378 kts 173°
2026-04-16 06:42 13.99793 120.90393 16880 ft 377 kts 163°
2026-04-16 06:42 13.97242 120.91086 17370 ft 382 kts 163°
2026-04-16 06:42 13.94644 120.91788 17887 ft 385 kts 163°
2026-04-16 06:43 13.92043 120.92479 18423 ft 387 kts 163°
2026-04-16 06:43 13.89410 120.93168 18939 ft 389 kts 163°
2026-04-16 06:43 13.86772 120.93851 19444 ft 392 kts 164°
2026-04-16 06:43 13.84128 120.94533 19930 ft 394 kts 164°
2026-04-16 06:44 13.81438 120.95225 20420 ft 396 kts 164°
2026-04-16 06:44 13.78770 120.95909 20891 ft 398 kts 164°
2026-04-16 06:44 13.76053 120.96606 21364 ft 401 kts 164°
2026-04-16 06:44 13.73331 120.97304 21815 ft 404 kts 164°
2026-04-16 06:45 13.70581 120.98010 22263 ft 407 kts 165°
2026-04-16 06:45 13.67849 120.98708 22713 ft 410 kts 165°
2026-04-16 06:45 13.65061 120.99422 23188 ft 412 kts 165°
2026-04-16 06:45 13.62276 121.00133 23661 ft 414 kts 165°
2026-04-16 06:46 13.59463 121.00853 24113 ft 416 kts 165°
2026-04-16 06:46 13.56649 121.01573 24555 ft 418 kts 165°
2026-04-16 06:46 13.53791 121.02316 24987 ft 420 kts 163°
2026-04-16 06:46 13.51040 121.03295 25395 ft 421 kts 156°
2026-04-16 06:47 13.48406 121.04623 25803 ft 423 kts 149°
2026-04-16 06:47 13.45894 121.06267 26217 ft 425 kts 145°
2026-04-16 06:47 13.43466 121.07980 26618 ft 427 kts 144°
2026-04-16 06:47 13.41027 121.09720 27001 ft 429 kts 145°
2026-04-16 06:48 13.38557 121.11470 27374 ft 431 kts 145°
2026-04-16 06:48 13.36059 121.13232 27741 ft 433 kts 145°
2026-04-16 06:48 13.33575 121.14978 28088 ft 435 kts 145°
2026-04-16 06:48 13.31064 121.16739 28415 ft 437 kts 145°
2026-04-16 06:49 13.28576 121.18484 28735 ft 439 kts 145°
2026-04-16 06:49 13.26019 121.20277 29050 ft 441 kts 145°
2026-04-16 06:49 13.23485 121.22053 29361 ft 443 kts 146°
2026-04-16 06:49 13.20940 121.23839 29752 ft 442 kts 146°
2026-04-16 06:50 13.18406 121.25615 30180 ft 440 kts 146°
2026-04-16 06:50 13.15878 121.27387 30575 ft 439 kts 146°
2026-04-16 06:50 13.13355 121.29154 30941 ft 439 kts 146°
2026-04-16 06:50 13.10838 121.30918 31291 ft 438 kts 146°
2026-04-16 06:51 13.08323 121.32680 31587 ft 439 kts 146°
2026-04-16 06:51 13.05787 121.34453 31869 ft 440 kts 146°
2026-04-16 06:51 13.03251 121.36228 32146 ft 441 kts 146°
2026-04-16 06:51 13.00686 121.38022 32429 ft 442 kts 146°
2026-04-16 06:52 12.98176 121.39778 32719 ft 442 kts 146°
2026-04-16 06:52 12.95616 121.41568 32921 ft 444 kts 146°
2026-04-16 06:52 12.90492 121.45152 32920 ft 445 kts 146°
2026-04-16 06:53 12.85364 121.48734 32907 ft 446 kts 146°
2026-04-16 06:53 12.80243 121.52311 32897 ft 445 kts 146°
2026-04-16 06:54 12.75130 121.55881 32896 ft 445 kts 146°
2026-04-16 06:54 12.70003 121.59459 32901 ft 444 kts 146°
2026-04-16 06:55 12.64895 121.63022 32901 ft 444 kts 146°
2026-04-16 06:55 12.59764 121.66598 32902 ft 444 kts 146°
2026-04-16 06:56 12.54648 121.70163 32896 ft 445 kts 146°
2026-04-16 06:56 12.49543 121.73719 32890 ft 445 kts 146°
2026-04-16 06:57 12.44412 121.77293 32889 ft 444 kts 146°
2026-04-16 06:57 12.39289 121.80813 32886 ft 444 kts 148°
2026-04-16 06:58 12.33902 121.83861 32882 ft 443 kts 155°
2026-04-16 06:58 12.28244 121.86398 32881 ft 443 kts 157°
2026-04-16 06:59 12.22577 121.88865 32878 ft 443 kts 157°
2026-04-16 06:59 12.16862 121.91354 32878 ft 444 kts 157°
2026-04-16 07:00 12.11153 121.93843 32811 ft 446 kts 157°
2026-04-16 07:00 12.08306 121.95084 32516 ft 444 kts 157°
2026-04-16 07:01 12.02668 121.97539 31533 ft 439 kts 157°
2026-04-16 07:01 11.99830 121.98775 30881 ft 439 kts 157°
2026-04-16 07:01 11.97016 122.00002 30200 ft 440 kts 157°
2026-04-16 07:01 11.94199 122.01228 29494 ft 441 kts 157°
2026-04-16 07:02 11.91376 122.02458 28796 ft 442 kts 157°
2026-04-16 07:02 11.88543 122.03692 28324 ft 437 kts 157°
2026-04-16 07:02 11.85774 122.04895 27865 ft 434 kts 156°
2026-04-16 07:02 11.82966 122.06115 27381 ft 431 kts 156°
2026-04-16 07:03 11.80228 122.07306 26904 ft 428 kts 156°
2026-04-16 07:03 11.77474 122.08503 26420 ft 426 kts 156°
2026-04-16 07:03 11.74783 122.09674 25951 ft 423 kts 156°
2026-04-16 07:03 11.72064 122.10857 25470 ft 420 kts 156°
2026-04-16 07:04 11.69395 122.12017 24997 ft 418 kts 156°
2026-04-16 07:04 11.66704 122.13188 24521 ft 415 kts 156°
2026-04-16 07:04 11.64074 122.14330 24050 ft 413 kts 156°
2026-04-16 07:04 11.61423 122.15482 23577 ft 410 kts 155°
2026-04-16 07:05 11.58789 122.16625 23104 ft 408 kts 155°
2026-04-16 07:05 11.56185 122.17757 22638 ft 406 kts 155°
2026-04-16 07:05 11.53615 122.18872 22173 ft 403 kts 155°
2026-04-16 07:05 11.51014 122.20001 21699 ft 401 kts 155°
2026-04-16 07:06 11.48473 122.21104 21232 ft 399 kts 155°
2026-04-16 07:06 11.45902 122.22221 20762 ft 397 kts 155°
2026-04-16 07:06 11.43356 122.23325 20295 ft 395 kts 155°
2026-04-16 07:06 11.40827 122.24422 19829 ft 393 kts 155°
2026-04-16 07:07 11.38303 122.25516 19360 ft 392 kts 155°
2026-04-16 07:07 11.35821 122.26592 18889 ft 390 kts 155°
2026-04-16 07:07 11.33299 122.27685 18413 ft 389 kts 155°
2026-04-16 07:07 11.30839 122.28751 17951 ft 387 kts 154°
2026-04-16 07:08 11.28352 122.29829 17475 ft 385 kts 154°
2026-04-16 07:08 11.25878 122.30901 17002 ft 384 kts 154°
2026-04-16 07:08 11.23434 122.31961 16608 ft 379 kts 154°
2026-04-16 07:08 11.21035 122.32999 16407 ft 368 kts 155°
2026-04-16 07:09 11.18706 122.34006 16277 ft 355 kts 154°
2026-04-16 07:09 11.16501 122.35014 16141 ft 343 kts 151°
2026-04-16 07:09 11.14421 122.36160 15838 ft 337 kts 147°
2026-04-16 07:09 11.12415 122.37380 15429 ft 335 kts 146°
2026-04-16 07:10 11.10420 122.38607 15032 ft 334 kts 146°
2026-04-16 07:10 11.08427 122.39831 14637 ft 332 kts 146°
2026-04-16 07:10 11.06452 122.41043 14247 ft 330 kts 146°
2026-04-16 07:10 11.04480 122.42252 13854 ft 328 kts 146°
2026-04-16 07:11 11.02533 122.43443 13469 ft 326 kts 146°
2026-04-16 07:11 11.00586 122.44632 13084 ft 324 kts 146°
2026-04-16 07:11 10.98655 122.45812 12702 ft 322 kts 146°
2026-04-16 07:11 10.96732 122.46987 12320 ft 320 kts 146°
2026-04-16 07:12 10.94841 122.48143 11945 ft 318 kts 146°
2026-04-16 07:12 10.92938 122.49306 11569 ft 316 kts 146°
2026-04-16 07:12 10.91053 122.50456 11242 ft 312 kts 146°
2026-04-16 07:12 10.89204 122.51590 10898 ft 308 kts 144°
2026-04-16 07:13 10.87541 122.52918 10507 ft 304 kts 133°
2026-04-16 07:13 10.86156 122.54549 10140 ft 300 kts 125°
2026-04-16 07:13 10.84895 122.56234 9783 ft 297 kts 124°
2026-04-16 07:13 10.83664 122.57905 9436 ft 295 kts 124°
2026-04-16 07:14 10.82449 122.59550 9071 ft 292 kts 124°
2026-04-16 07:14 10.81226 122.61197 8719 ft 290 kts 124°
2026-04-16 07:14 10.80006 122.62833 8371 ft 287 kts 125°
2026-04-16 07:14 10.78815 122.64429 8022 ft 285 kts 124°
2026-04-16 07:15 10.77608 122.66045 7674 ft 282 kts 125°
2026-04-16 07:15 10.76433 122.67613 7332 ft 280 kts 125°
2026-04-16 07:15 10.75262 122.69182 7000 ft 278 kts 126°
2026-04-16 07:15 10.74083 122.70757 6659 ft 277 kts 126°
2026-04-16 07:16 10.72927 122.72298 6321 ft 275 kts 125°
2026-04-16 07:16 10.71769 122.73846 5976 ft 273 kts 126°
2026-04-16 07:16 10.70623 122.75373 5635 ft 272 kts 125°
2026-04-16 07:16 10.69470 122.76909 5302 ft 270 kts 125°
2026-04-16 07:17 10.68331 122.78429 4961 ft 269 kts 125°
2026-04-16 07:17 10.67210 122.79924 4635 ft 268 kts 124°
2026-04-16 07:17 10.66112 122.81451 4311 ft 266 kts 121°
2026-04-16 07:17 10.65143 122.83051 3993 ft 263 kts 117°
2026-04-16 07:18 10.64234 122.84647 3661 ft 262 kts 117°
2026-04-16 07:18 10.63325 122.86247 3351 ft 259 kts 117°
2026-04-16 07:18 10.62440 122.87802 3311 ft 245 kts 117°
2026-04-16 07:18 10.61611 122.89255 3284 ft 231 kts 116°
2026-04-16 07:19 10.60942 122.90686 3190 ft 216 kts 96°
2026-04-16 07:19 10.61167 122.92087 3108 ft 200 kts 54°
2026-04-16 07:19 10.62201 122.93018 3039 ft 197 kts 28°
2026-04-16 07:19 10.63376 122.93623 2990 ft 184 kts 28°
2026-04-16 07:20 10.64465 122.94226 2811 ft 171 kts 30°
2026-04-16 07:20 10.65461 122.94794 2623 ft 155 kts 30°
2026-04-16 07:20 10.66377 122.95322 2364 ft 149 kts 30°
2026-04-16 07:20 10.67275 122.95843 2158 ft 147 kts 30°
2026-04-16 07:21 10.68169 122.96365 1954 ft 147 kts 30°
2026-04-16 07:21 10.69054 122.96880 1757 ft 146 kts 30°
2026-04-16 07:21 10.69931 122.97392 1562 ft 146 kts 30°
2026-04-16 07:21 10.70815 122.97903 1371 ft 145 kts 31°
2026-04-16 07:22 10.71691 122.98415 1180 ft 145 kts 31°
2026-04-16 07:22 10.72578 122.98933 987 ft 144 kts 31°
2026-04-16 07:22 10.73449 122.99440 794 ft 143 kts 31°
2026-04-16 07:22 10.74317 122.99953 632 ft 144 kts 31°
2026-04-16 07:23 10.75152 123.00444 474 ft 143 kts 31°
2026-04-16 07:23 10.76015 123.00948 277 ft 141 kts 31°
2026-04-16 07:23 10.76834 123.01434 71 ft 134 kts 29°
2026-04-16 07:23 10.77588 123.01871 38 ft 103 kts 30°
2026-04-16 07:24 10.78063 123.02147 38 ft 50 kts 28°
2026-04-16 07:24 10.78296 123.02282 39 ft 27 kts 30°
2026-04-16 07:24 10.78398 123.02315 39 ft 10 kts
2026-04-16 07:24 10.78439 123.02337 39 ft 5 kts 93°
2026-04-16 07:25 10.78409 123.02348 39 ft 6 kts 210°
2026-04-16 07:25 10.78351 123.02312 39 ft 12 kts 210°
2026-04-16 07:25 10.78260 123.02259 38 ft 17 kts 209°
2026-04-16 07:25 10.78141 123.02192 38 ft 21 kts 211°
2026-04-16 07:26 10.78002 123.02111 38 ft 23 kts 211°
2026-04-16 07:26 10.77861 123.02028 38 ft 22 kts 210°
2026-04-16 07:26 10.77728 123.01952 38 ft 17 kts 209°
2026-04-16 07:26 10.77679 123.01884 38 ft 12 kts 283°
2026-04-16 07:27 10.77719 123.01807 37 ft 12 kts 299°
2026-04-16 07:27 10.77747 123.01725 37 ft 12 kts 263°
2026-04-16 07:27 10.77696 123.01673 37 ft 9 kts 210°
2026-04-16 07:27 10.77641 123.01640 37 ft 9 kts 210°
2026-04-16 07:28 10.77585 123.01608 37 ft 9 kts 211°
2026-04-16 07:28 10.77566 123.01578 37 ft 5 kts 290°
2026-04-16 07:28 10.77584 123.01546 36 ft 3 kts 300°
2026-04-16 07:28 10.77591 123.01533 36 ft 1 kts 301°
2026-04-16 07:29 10.77593 123.01531 36 ft 0 kts 301°
2026-04-16 07:29 10.77593 123.01530 36 ft 0 kts 301°
2026-04-16 07:32 10.77592 123.01530 36 ft 0 kts 302°